Midland, VA

1:01 AM EST on February 09, 2016 (GMT -0500)
Warrenton

Weather History for KHWY - July, 2013

Change the Weather History Date:

Thursday, July 18, 2013

  Actual Average (KHEF) Record (KHEF)
Temperature  
Mean Temperature 85 °F -  
Max Temperature 96 °F 83 °F 98 °F (2012)
Min Temperature 74 °F 62 °F 60 °F (2003)
Cooling Degree Days 20    
Growing Degree Days 35 (Base 50)    
Moisture  
Dew Point 79 °F    
Average Humidity 85    
Maximum Humidity 100    
Minimum Humidity 59    
Precipitation  
Precipitation 0.00 in - - ()
Sea Level Pressure  
Sea Level Pressure 30.09 in    
Wind  
Wind Speed 1 mph (WSW)    
Max Wind Speed 7 mph    
Max Gust Speed -    
Visibility 8 miles    
Events      
Averages and records for this station are not official NWS values.
T = Trace of Precipitation, MM = Missing Value Source: NWS Daily Summary

Daily Weather History Graph

Daily Weather History Graph

Search for Another Location

Airport or City:

Trip Planner

Search our weather history database for the weather conditions in past years. The results will help you decide how hot, cold, wet, or windy it might be!

Date:

Astronomy

Jul. 18, 2013 Rise Set
Actual Time 6:01 AM EDT 8:32 PM EDT
Civil Twilight 5:30 AM EDT 9:03 PM EDT
Nautical Twilight 4:52 AM EDT 9:41 PM EDT
Astronomical Twilight 4:09 AM EDT 10:23 PM EDT
Moon 4:27 PM EDT (7/18) 1:49 AM EDT (7/18)
Length of Visible Light 15h 32m
Length of Day
14h 31m
Waxing Gibbous, 77% of the Moon is Illuminated
Jul 18
Waxing Gibbous
Jul 22
Full
Jul 29
Last Quarter
Aug 6
New
Aug 14
First Quarter

Hourly Weather History & Observations

Time (EDT) Temp. Heat Index Dew Point Humidity Pressure Visibility Wind Dir Wind Speed Gust Speed Precip Events Conditions
12:15 AM 76.3 °F - 76.3 °F 100% 30.14 in 4.0 mi Calm Calm - N/A   Clear
12:35 AM 75.7 °F - 75.7 °F 100% 30.14 in 5.0 mi Calm Calm - N/A   Clear
12:55 AM 76.3 °F - 76.3 °F 100% 30.13 in 5.0 mi Calm Calm - N/A   Clear
1:15 AM 75.4 °F - 75.4 °F 100% 30.13 in 5.0 mi Calm Calm - N/A   Clear
1:35 AM 75.4 °F - 75.4 °F 100% 30.12 in 3.0 mi Calm Calm - N/A   Clear
1:55 AM 76.1 °F - 76.1 °F 100% 30.13 in 5.0 mi Calm Calm - N/A   Clear
2:15 AM 76.1 °F - 76.1 °F 100% 30.12 in 5.0 mi Calm Calm - N/A   Clear
2:35 AM 75.4 °F - 75.4 °F 100% 30.12 in 4.0 mi Calm Calm - N/A   Clear
2:55 AM 75.2 °F - 75.2 °F 100% 30.12 in 1.5 mi Calm Calm - N/A   Mist
3:15 AM 75.2 °F - 75.2 °F 100% 30.12 in 0.8 mi Calm Calm - N/A   Mostly Cloudy
3:35 AM 75.0 °F - 75.0 °F 100% 30.11 in 3.0 mi Calm Calm - N/A   Mist
3:55 AM 75.0 °F - 75.0 °F 100% 30.11 in 4.0 mi Calm Calm - N/A   Clear
4:15 AM 75.2 °F - 75.2 °F 100% 30.11 in 4.0 mi Calm Calm - N/A   Clear
4:35 AM 75.2 °F - 75.2 °F 100% 30.11 in 3.0 mi Calm Calm - N/A   Clear
4:55 AM 75.4 °F - 75.4 °F 100% 30.11 in 4.0 mi Calm Calm - N/A   Clear
5:15 AM 75.2 °F - 75.2 °F 100% 30.11 in 4.0 mi Calm Calm - N/A   Clear
5:35 AM 75.4 °F - 75.4 °F 100% 30.11 in 4.0 mi Calm Calm - N/A   Clear
5:55 AM 74.5 °F - 74.5 °F 100% 30.10 in 2.5 mi Calm Calm - N/A   Clear
6:15 AM 74.3 °F - 74.3 °F 100% 30.11 in 1.2 mi Calm Calm - N/A   Mist
6:35 AM 75.4 °F - 75.4 °F 100% 30.11 in 4.0 mi Calm Calm - N/A   Clear
6:55 AM 76.3 °F - 76.3 °F 100% 30.11 in 5.0 mi Calm Calm - N/A   Clear
7:15 AM 77.4 °F - 77.4 °F 100% 30.12 in 7.0 mi Calm Calm - N/A   Clear
7:35 AM 78.4 °F - 78.3 °F 99% 30.12 in 7.0 mi Calm Calm - N/A   Clear
7:55 AM 80.1 °F 86.7 °F 78.8 °F 96% 30.12 in 10.0 mi Calm Calm - N/A   Clear
8:15 AM 81.5 °F 91.0 °F 79.7 °F 94% 30.13 in 10.0 mi Calm Calm - N/A   Clear
8:35 AM 83.3 °F 95.7 °F 80.1 °F 90% 30.13 in 10.0 mi Calm Calm - N/A   Clear
8:55 AM 85.1 °F 99.4 °F 80.2 °F 85% 30.13 in 10.0 mi Calm Calm - N/A   Clear
9:15 AM 88.0 °F 107.5 °F 81.9 °F 82% 30.13 in 10.0 mi NNW 3.5 mph - N/A   Clear
9:35 AM 88.9 °F 106.5 °F 80.2 °F 76% 30.13 in 10.0 mi NNW 4.6 mph - N/A   Clear
9:55 AM 89.6 °F 108.9 °F 81.3 °F 76% 30.13 in 10.0 mi North 5.8 mph - N/A   Clear
10:15 AM 90.1 °F 109.2 °F 81.0 °F 74% 30.13 in 10.0 mi NNW 4.6 mph - N/A   Clear
10:35 AM 90.7 °F 110.2 °F 81.1 °F 73% 30.13 in 10.0 mi North 5.8 mph - N/A   Clear
10:55 AM 91.2 °F 112.0 °F 81.3 °F 73% 30.13 in 10.0 mi North 4.6 mph - N/A   Clear
11:15 AM 91.6 °F 111.6 °F 80.8 °F 71% 30.13 in 10.0 mi NNE 6.9 mph - N/A   Clear
11:35 AM 91.9 °F 112.8 °F 81.3 °F 71% 30.13 in 10.0 mi ENE 3.5 mph - N/A   Scattered Clouds
11:55 AM 92.3 °F 111.5 °F 80.2 °F 68% 30.12 in 10.0 mi Calm Calm - N/A   Scattered Clouds
12:15 PM 92.7 °F 113.5 °F 81.0 °F 69% 30.12 in 10.0 mi Calm Calm - N/A   Mostly Cloudy
12:35 PM 94.1 °F 116.5 °F 81.5 °F 67% 30.12 in 10.0 mi Calm Calm - N/A   Scattered Clouds
12:55 PM 95.4 °F 116.9 °F 80.8 °F 63% 30.11 in 10.0 mi Calm Calm - N/A   Mostly Cloudy
1:15 PM 94.8 °F 116.1 °F 80.8 °F 64% 30.11 in 10.0 mi West 3.5 mph - N/A   Scattered Clouds
1:35 PM 94.3 °F 116.2 °F 81.3 °F 66% 30.10 in 10.0 mi Calm Calm - N/A   Scattered Clouds
1:55 PM 95.7 °F 118.1 °F 81.3 °F 63% 30.10 in 10.0 mi Calm Calm - N/A   Scattered Clouds
2:15 PM 95.7 °F 116.2 °F 80.4 °F 61% 30.09 in 10.0 mi Calm Calm - N/A   Scattered Clouds
2:35 PM 96.3 °F 123.0 °F 83.1 °F 66% 30.09 in 10.0 mi SW 3.5 mph - N/A   Clear
2:55 PM 96.8 °F 117.7 °F 80.4 °F 59% 30.08 in 10.0 mi Calm Calm - N/A   Scattered Clouds
3:15 PM 96.1 °F 117.3 °F 80.6 °F 61% 30.07 in 10.0 mi WSW 4.6 mph - N/A   Clear
3:35 PM 96.8 °F 120.7 °F 81.9 °F 62% 30.07 in 10.0 mi SSW 3.5 mph - N/A   Scattered Clouds
3:55 PM 96.4 °F 119.5 °F 81.3 °F 62% 30.06 in 10.0 mi Calm Calm - N/A   Clear
4:15 PM 93.9 °F 116.8 °F 81.9 °F 68% 30.05 in 10.0 mi Calm Calm - N/A   Scattered Clouds
4:35 PM 94.8 °F 118.0 °F 81.9 °F 66% 30.05 in 10.0 mi South 4.6 mph - N/A   Scattered Clouds
4:55 PM 95.5 °F 120.5 °F 82.4 °F 66% 30.04 in 10.0 mi South 3.5 mph - N/A   Clear
5:15 PM 94.6 °F 114.6 °F 80.2 °F 63% 30.03 in 10.0 mi WSW 4.6 mph - N/A   Clear
6:35 PM 93.6 °F 117.5 °F 82.4 °F 70% 30.03 in 10.0 mi WSW 4.6 mph - N/A   Clear
6:55 PM 93.0 °F 116.5 °F 82.4 °F 71% 30.04 in 10.0 mi Calm Calm - N/A   Clear
7:15 PM 93.2 °F 115.3 °F 81.9 °F 69% 30.04 in 10.0 mi Calm Calm - N/A   Clear
7:35 PM 93.2 °F 118.0 °F 83.1 °F 72% 30.05 in 10.0 mi Calm Calm - N/A   Clear
7:55 PM 86.2 °F 106.6 °F 83.3 °F 91% 30.05 in 10.0 mi Calm Calm - N/A   Clear
8:15 PM 84.2 °F 101.1 °F 82.8 °F 95% 30.05 in 10.0 mi Calm Calm - N/A   Clear
8:35 PM 83.1 °F 97.4 °F 81.9 °F 96% 30.04 in 10.0 mi Calm Calm - N/A   Clear
8:55 PM 82.6 °F 96.1 °F 81.9 °F 98% 30.05 in 7.0 mi Calm Calm - N/A   Clear
9:15 PM 81.5 °F 92.6 °F 81.5 °F 100% 30.05 in 7.0 mi Calm Calm - N/A   Clear
9:35 PM 81.7 °F 92.7 °F 81.1 °F 98% 30.05 in 5.0 mi South 3.5 mph - N/A   Clear
9:55 PM 82.0 °F 94.1 °F 81.3 °F 98% 30.05 in 10.0 mi South 5.8 mph - N/A   Clear
10:15 PM 84.7 °F 99.7 °F 81.0 °F 88% 30.05 in 10.0 mi SSW 4.6 mph - N/A   Clear
10:35 PM 84.9 °F 100.3 °F 81.1 °F 88% 30.04 in 10.0 mi SSW 4.6 mph - N/A   Clear
10:55 PM 83.5 °F 97.5 °F 81.1 °F 93% 30.04 in 10.0 mi Calm Calm - N/A   Clear
11:15 PM 82.8 °F 95.3 °F 81.0 °F 94% 30.04 in 10.0 mi SSW 4.6 mph - N/A   Clear
11:35 PM 83.3 °F 96.8 °F 81.1 °F 93% 30.04 in 10.0 mi Calm Calm - N/A   Clear
11:55 PM 82.6 °F 94.7 °F 80.8 °F 94% 30.05 in 10.0 mi Calm Calm - N/A   Clear